Верхнеколвинск

Россия / Республика Коми     66°40′06″N   56°59′19″E
темп.,
°C
ветер,
м/с
пор.,
м/с
влажн.,
%
обл.,
%
осадки,
мм/ч
давл.,
гПа
погр.,
м
23 июня, ср
ср2300:00+8вюв486935 0.0 1021134
03:00+8юв37685 0.0 1021185
06:00+13ююв55525 0.0 1020446
09:00+17ю454329 0.0 1019917
12:00+20ююз454221 0.0 10171050
15:00+23зюз3542100 0.0 10151487
18:00+19св3464100 0.0 101492
21:00+16св3481100 0.6 101576
24 июня, чт
чт2400:00+14ссв5884100 0.1 1015222
03:00+10ссв61089100 0.1 1016283
06:00+11ссв676999 0.0 1017399
09:00+13св565240 0.0 1017566
12:00+18св4539100 0.0 1016964
15:00+19всв333595 0.0 10161148
18:00+18всв3543100 0.0 1015320
21:00+14в61049100 0.0 1013301
25 июня, пт
пт2500:00+9всв61076100 1.4 1012265
03:00+7всв81489100 8.9 1012436
06:00+8всв81392100 3.9 1011466
09:00+9св71188100 4.0 1012561
12:00+12св7106363 0.0 1013812
15:00+17св89442 0.0 10141600
18:00+15ссв794895 0.0 1015826
21:00+11ссв511595 0.0 1016269
26 июня, сб
сб2600:00+7св511685 0.0 1018186
03:00+7св5106340 0.0 1018291
06:00+10св67522 0.0 1019476
09:00+15всв664712 0.0 1019833
12:00+17всв5543100 0.0 10181255
15:00+18всв4442100 0.0 10181457
18:00+18всв23538 0.0 1018236
21:00+13в33655 0.0 101719
27 июня, вс
вс2700:00+11ююв3367100 0.0 101724
03:00+12ююв2370100 0.0 101648
06:00+14ююв1167100 0.0 1015117
09:00+18вюв115580 0.0 1015791
12:00+17с3454100 0.0 10141042
15:00+19сз354988 0.0 10141652
18:00+15с5869100 0.1 1015523
21:00+12с587624 0.1 1016250